TimePDT,TemperatureF,Dew PointF,Humidity,Sea Level PressureIn,VisibilityMPH,Wind Direction,Wind SpeedMPH,Gust SpeedMPH,PrecipitationIn,Events,Conditions,WindDirDegrees,DateUTC
12:53 AM,82.9,68.0,60,29.74,10.0,Calm,Calm,-,N/A,,Clear,0,2013-08-23 07:53:00
1:53 AM,87.1,66.0,49,29.73,10.0,Calm,Calm,-,N/A,,Clear,0,2013-08-23 08:53:00
2:53 AM,84.9,66.0,53,29.73,10.0,ENE,4.6,-,N/A,,Clear,70,2013-08-23 09:53:00
3:53 AM,86.0,64.9,49,29.73,10.0,Calm,Calm,-,N/A,,Clear,0,2013-08-23 10:53:00
4:53 AM,84.9,66.0,53,29.74,10.0,Calm,Calm,-,N/A,,Clear,0,2013-08-23 11:53:00
5:53 AM,80.1,70.0,71,29.76,10.0,WSW,6.9,-,N/A,,Clear,240,2013-08-23 12:53:00
6:53 AM,81.0,68.0,65,29.77,10.0,WSW,3.5,-,N/A,,Clear,240,2013-08-23 13:53:00
7:53 AM,82.9,69.1,63,29.79,10.0,WSW,3.5,-,N/A,,Clear,250,2013-08-23 14:53:00
8:53 AM,89.1,68.0,50,29.79,10.0,SSW,3.5,-,N/A,,Clear,200,2013-08-23 15:53:00
9:53 AM,93.0,64.9,39,29.79,10.0,Calm,Calm,-,N/A,,Clear,0,2013-08-23 16:53:00
10:53 AM,95.0,66.0,38,29.77,10.0,East,6.9,-,N/A,,Clear,100,2013-08-23 17:53:00
11:53 AM,100.0,64.0,31,29.76,10.0,SSE,10.4,-,N/A,,Clear,160,2013-08-23 18:53:00
12:53 PM,100.0,64.0,31,29.73,10.0,Variable,4.6,-,N/A,,Clear,0,2013-08-23 19:53:00
1:53 PM,104.0,63.0,26,29.70,10.0,SE,16.1,19.6,N/A,,Clear,140,2013-08-23 20:53:00
2:53 PM,102.0,64.0,29,29.68,10.0,SW,11.5,-,N/A,,Clear,220,2013-08-23 21:53:00
3:53 PM,100.0,63.0,29,29.65,10.0,SW,5.8,-,N/A,,Clear,220,2013-08-23 22:53:00
4:53 PM,102.0,63.0,28,29.63,10.0,West,8.1,-,N/A,,Clear,260,2013-08-23 23:53:00
5:53 PM,102.0,63.0,28,29.61,10.0,WNW,3.5,-,N/A,,Clear,290,2013-08-24 00:53:00
6:53 PM,102.0,63.0,28,29.61,10.0,Calm,Calm,-,N/A,,Clear,0,2013-08-24 01:53:00
7:53 PM,98.1,66.9,36,29.62,10.0,ESE,6.9,-,N/A,,Clear,120,2013-08-24 02:53:00
8:53 PM,96.1,64.0,35,29.65,10.0,SE,10.4,-,N/A,,Clear,140,2013-08-24 03:53:00
9:53 PM,93.9,64.0,37,29.66,10.0,SE,6.9,-,N/A,,Clear,140,2013-08-24 04:53:00
10:53 PM,93.0,64.0,38,29.68,10.0,South,4.6,-,N/A,,Clear,170,2013-08-24 05:53:00
11:53 PM,93.0,64.0,38,29.69,10.0,SSE,6.9,-,N/A,,Clear,160,2013-08-24 06:53:00